FW2617 Weather Reports


time (UTC)temp
F
wind
direction
speed
knots
gust
knots
rain 1hr
in
rain 24hr
in
rain mn
in
humidity
%
barometer
mb
20260901104525 78 176 0.9 1.7 0.00 0.00 0.00 74 1012.8
20260901103625 78 165 0.0 1.7 0.00 0.00 0.00 74 1012.8
20260901102725 79 177 0.0 2.6 0.00 0.00 0.00 73 1012.9
20260901101804 79 0 0.0 0.0 0.00 0.00 0.00 72 1012.8
20260901100903 79 0 0.0 0.0 0.00 0.00 0.00 72 1012.8
20260901100004 79 0 0.0 0.0 0.00 0.00 0.00 71 1012.8
20260901095404 79 0 0.0 0.0 0.00 0.00 0.00 71 1012.8
20260901094524 79 0 0.0 0.0 0.00 0.00 0.00 71 1012.9
20260901093603 80 180 0.0 2.6 0.00 0.00 0.00 70 1013.0
20260901092704 80 191 0.9 2.6 0.00 0.00 0.00 70 1013.0
20260901091804 80 195 0.9 2.6 0.00 0.00 0.00 69 1013.1
20260901090904 80 182 0.9 3.5 0.00 0.00 0.00 68 1013.1
20260901090004 80 0 0.0 0.0 0.00 0.00 0.00 67 1013.0
20260901085404 80 0 0.0 0.0 0.00 0.00 0.00 67 1012.9
20260901084525 80 203 0.0 1.7 0.00 0.00 0.00 66 1012.9
20260901083604 80 190 0.9 1.7 0.00 0.00 0.00 66 1012.9
20260901082704 80 169 0.9 3.5 0.00 0.00 0.00 66 1013.0
20260901081804 80 167 0.9 4.3 0.00 0.00 0.00 65 1013.0
20260901080925 80 166 0.9 4.3 0.00 0.00 0.00 65 1012.9
20260901080004 80 173 0.0 2.6 0.00 0.00 0.00 63 1013.0
20260901075403 80 165 0.0 3.5 0.00 0.00 0.00 62 1013.0
20260901074503 81 0 0.0 0.0 0.00 0.00 0.00 61 1013.1
20260901073604 81 150 0.9 2.6 0.00 0.00 0.00 61 1012.9
20260901072704 81 161 0.9 3.5 0.00 0.00 0.00 61 1012.8
20260901071804 81 154 1.7 4.3 0.00 0.00 0.00 60 1012.8
20260901070904 82 181 1.7 5.2 0.00 0.00 0.00 59 1012.7
20260901070004 82 169 1.7 5.2 0.00 0.00 0.00 58 1012.7
20260901065404 82 166 2.6 5.2 0.00 0.00 0.00 58 1012.6
20260901064503 82 163 1.7 5.2 0.00 0.00 0.00 57 1012.6
20260901063603 82 149 0.9 2.6 0.00 0.00 0.00 56 1012.4
20260901062703 82 152 0.9 3.5 0.00 0.00 0.00 55 1012.3
20260901061804 82 152 1.7 4.3 0.00 0.00 0.00 54 1012.3
20260901060925 82 151 1.7 5.2 0.00 0.00 0.00 54 1012.2
20260901060024 83 149 0.9 3.5 0.00 0.00 0.00 53 1012.1
20260901055404 83 149 0.9 4.3 0.00 0.00 0.00 52 1011.9
20260901054504 83 151 0.9 3.5 0.00 0.00 0.00 52 1011.8
20260901053604 83 158 0.0 0.9 0.00 0.00 0.00 52 1011.8
20260901052704 83 145 0.9 3.5 0.00 0.00 0.00 52 1011.7
20260901051804 84 0 0.0 0.0 0.00 0.00 0.00 52 1011.5
20260901050903 84 0 0.0 0.0 0.00 0.00 0.00 51 1011.3
20260901050004 84 0 0.0 0.0 0.00 0.00 0.00 51 1011.4
20260901045404 84 0 0.0 0.0 0.00 0.00 0.00 51 1011.4
20260901044505 84 0 0.0 0.0 0.00 0.00 0.00 50 1011.3
20260901043604 84 0 0.0 0.0 0.00 0.00 0.00 51 1011.4
20260901042703 85 0 0.0 0.0 0.00 0.00 0.00 50 1011.4
20260901041804 85 0 0.0 0.0 0.00 0.00 0.00 49 1011.3
20260901040904 86 0 0.0 0.0 0.00 0.00 0.00 49 1011.4
20260901040004 86 0 0.0 0.0 0.00 0.00 0.00 49 1011.4
20260901035404 86 0 0.0 0.0 0.00 0.00 0.00 49 1011.4
20260901034504 87 0 0.0 0.0 0.00 0.00 0.00 49 1011.5
20260901033603 87 0 0.0 0.0 0.00 0.00 0.00 46 1011.3
20260901032704 88 157 0.9 2.6 0.00 0.00 0.00 46 1011.3
20260901031803 88 153 0.0 1.7 0.00 0.00 0.00 46 1011.3
20260901030925 88 155 0.9 2.6 0.00 0.00 0.00 45 1011.3
20260901030003 88 157 0.0 1.7 0.00 0.00 0.00 45 1011.2
20260901025404 88 0 0.0 0.0 0.00 0.00 0.00 45 1011.1
20260901024504 89 0 0.0 0.0 0.00 0.00 0.00 44 1011.0
20260901023624 89 153 0.0 1.7 0.00 0.00 0.00 44 1010.9
20260901022704 89 150 0.9 1.7 0.00 0.00 0.00 43 1010.8
20260901021804 90 150 0.0 1.7 0.00 0.00 0.00 43 1010.7
20260901020904 90 151 0.9 1.7 0.00 0.00 0.00 42 1010.6
20260901020025 90 150 0.9 1.7 0.00 0.00 0.00 42 1010.5
20260901015404 91 0 0.0 0.0 0.00 0.00 0.00 41 1010.4
20260901014524 91 142 0.0 1.7 0.00 0.00 0.00 40 1010.3
20260901013604 92 148 0.9 1.7 0.00 0.00 0.00 40 1010.2
20260901012704 92 149 0.9 3.5 0.00 0.00 0.00 39 1010.2
20260901011803 93 149 1.7 3.5 0.00 0.00 0.00 38 1010.2
20260901010925 94 142 0.9 3.5 0.00 0.00 0.00 38 1010.1
20260901010003 94 143 0.9 2.6 0.00 0.00 0.00 37 1010.1
20260901005404 94 142 0.9 3.5 0.00 0.00 0.00 37 1010.0
20260901004503 95 150 1.7 4.3 0.00 0.00 0.00 36 1010.0
20260901003604 95 144 1.7 5.2 0.00 0.00 0.00 36 1010.0
20260901002703 96 143 1.7 7.0 0.00 0.00 0.00 35 1010.0
20260901001803 96 147 1.7 5.2 0.00 0.00 0.00 35 1010.0
20260901000904 97 152 1.7 5.2 0.00 0.00 0.00 35 1010.0
20260901000003 97 161 2.6 7.0 0.00 0.00 0.00 35 1009.9
20260831235403 97 158 2.6 7.0 0.00 0.00 0.00 35 1010.0
20260831234503 97 151 1.7 5.2 0.00 0.00 0.00 35 1010.0
20260831233603 97 145 2.6 6.1 0.00 0.00 0.00 35 1010.1
20260831232704 98 149 2.6 7.8 0.00 0.00 0.00 34 1010.0
20260831231803 98 143 2.6 7.0 0.00 0.00 0.00 35 1010.0
20260831230925 98 148 2.6 9.6 0.00 0.00 0.00 33 1010.0
20260831230004 98 135 2.6 6.1 0.00 0.00 0.00 33 1010.0
20260831225404 99 142 3.5 9.6 0.00 0.00 0.00 32 1010.0
20260831224503 100 146 4.3 9.6 0.00 0.00 0.00 32 1010.1
20260831223604 100 165 2.6 6.1 0.00 0.00 0.00 31 1010.1
20260831222703 100 158 3.5 7.0 0.00 0.00 0.00 31 1010.1
20260831221804 102 158 3.5 9.6 0.00 0.00 0.00 30 1010.2
20260831220904 102 139 1.7 6.1 0.00 0.00 0.00 30 1010.2
20260831220004 102 153 2.6 8.7 0.00 0.00 0.00 31 1010.2
20260831215403 101 162 3.5 13.9 0.00 0.00 0.00 31 1010.4
20260831214524 101 150 3.5 8.7 0.00 0.00 0.00 32 1010.4
20260831213604 101 157 4.3 12.2 0.00 0.00 0.00 31 1010.6
20260831212703 101 171 3.5 8.7 0.00 0.00 0.00 32 1010.5
20260831211825 100 165 3.5 8.7 0.00 0.00 0.00 32 1010.7
20260831210903 99 161 2.6 8.7 0.00 0.00 0.00 33 1010.8
20260831210024 99 148 4.3 8.7 0.00 0.00 0.00 33 1010.9
20260831205404 101 142 3.5 8.7 0.00 0.00 0.00 32 1011.0
20260831204503 100 139 4.3 7.8 0.00 0.00 0.00 33 1011.2
20260831203603 99 167 2.6 7.0 0.00 0.00 0.00 34 1011.4
20260831202704 98 168 3.5 8.7 0.00 0.00 0.00 34 1011.5
20260831201803 100 157 5.2 10.4 0.00 0.00 0.00 33 1011.6
20260831200903 101 158 6.1 13.9 0.00 0.00 0.00 33 1011.7
20260831200003 101 167 4.3 11.3 0.00 0.00 0.00 34 1011.8
20260831195403 101 166 5.2 12.2 0.00 0.00 0.00 32 1011.8
20260831194503 100 163 4.3 11.3 0.00 0.00 0.00 34 1011.9
20260831193604 98 154 4.3 10.4 0.00 0.00 0.00 37 1012.0
20260831192724 98 154 5.2 8.7 0.00 0.00 0.00 36 1012.1
20260831191804 99 160 4.3 8.7 0.00 0.00 0.00 37 1012.2
20260831190904 99 157 4.3 10.4 0.00 0.00 0.00 36 1012.3
20260831190003 100 173 5.2 12.2 0.00 0.00 0.00 35 1012.4
20260831185425 100 165 4.3 9.6 0.00 0.00 0.00 37 1012.4
20260831184503 100 164 3.5 11.3 0.00 0.00 0.00 38 1012.5
20260831183604 99 164 5.2 10.4 0.00 0.00 0.00 39 1012.7
20260831182703 99 151 4.3 10.4 0.00 0.00 0.00 38 1012.8
20260831181824 99 158 6.1 13.9 0.00 0.00 0.00 38 1012.9
20260831180924 99 152 4.3 13.9 0.00 0.00 0.00 38 1013.0
20260831180003 98 150 3.5 9.6 0.00 0.00 0.00 41 1013.2
20260831175403 98 161 4.3 10.4 0.00 0.00 0.00 40 1013.4
20260831174503 97 168 5.2 10.4 0.00 0.00 0.00 41 1013.5
20260831173603 97 166 4.3 9.6 0.00 0.00 0.00 42 1013.7
20260831172704 96 193 3.5 9.6 0.00 0.00 0.00 42 1013.8
20260831171804 96 179 4.3 10.4 0.00 0.00 0.00 41 1013.9
20260831170903 96 184 4.3 12.2 0.00 0.00 0.00 42 1013.9
20260831170003 95 177 3.5 8.7 0.00 0.00 0.00 43 1014.0
20260831165404 95 168 4.3 10.4 0.00 0.00 0.00 43 1014.1
20260831164503 94 178 3.5 9.6 0.00 0.00 0.00 44 1014.1
20260831163603 93 184 3.5 8.7 0.00 0.00 0.00 45 1014.0
20260831162704 92 193 4.3 10.4 0.00 0.00 0.00 48 1014.1
20260831161803 92 170 3.5 10.4 0.00 0.00 0.00 49 1014.0
20260831160904 91 166 3.5 8.7 0.00 0.00 0.00 51 1014.1
20260831160004 90 181 2.6 7.8 0.00 0.00 0.00 53 1014.0
20260831155403 89 179 2.6 7.0 0.00 0.00 0.00 56 1014.0
20260831154503 88 183 3.5 8.7 0.00 0.00 0.00 58 1014.0
20260831153624 87 195 4.3 8.7 0.00 0.00 0.00 58 1013.9
20260831152703 87 183 4.3 8.7 0.00 0.00 0.00 60 1013.9
20260831151803 86 189 4.3 7.8 0.00 0.00 0.00 62 1014.0
20260831150924 86 172 4.3 10.4 0.00 0.00 0.00 63 1013.9
20260831150003 85 187 3.5 8.7 0.00 0.00 0.00 66 1013.8
20260831145403 84 197 3.5 8.7 0.00 0.00 0.00 67 1013.8
20260831144503 84 189 4.3 10.4 0.00 0.00 0.00 68 1013.8
20260831143603 83 199 5.2 10.4 0.00 0.00 0.00 69 1013.8
20260831142704 83 203 4.3 8.7 0.00 0.00 0.00 71 1013.7
20260831141803 82 203 4.3 12.2 0.00 0.00 0.00 73 1013.7
20260831140903 81 185 3.5 8.7 0.00 0.00 0.00 75 1013.8
20260831140003 80 198 3.5 7.8 0.00 0.00 0.00 77 1013.7
20260831135403 80 196 3.5 7.8 0.00 0.00 0.00 78 1013.7
20260831134503 80 192 3.5 8.7 0.00 0.00 0.00 80 1013.7
20260831133603 79 182 2.6 7.8 0.00 0.00 0.00 81 1013.6
20260831132703 78 167 2.6 6.1 0.00 0.00 0.00 81 1013.5
20260831131824 78 174 2.6 5.2 0.00 0.00 0.00 82 1013.4
20260831130904 77 174 2.6 5.2 0.00 0.00 0.00 82 1013.2
20260831130004 77 178 1.7 5.2 0.00 0.00 0.00 82 1013.2
20260831125403 77 181 1.7 6.1 0.00 0.00 0.00 82 1013.1
20260831124503 76 175 1.7 5.2 0.00 0.00 0.00 83 1013.0
20260831123603 76 176 0.9 3.5 0.00 0.00 0.00 82 1012.9
20260831122703 76 176 0.9 3.5 0.00 0.00 0.00 81 1012.8
20260831121803 76 167 0.9 3.5 0.00 0.00 0.00 81 1012.7
20260831120904 76 172 0.9 3.5 0.00 0.00 0.00 81 1012.5
20260831120024 76 171 0.9 4.3 0.00 0.00 0.00 80 1012.4
20260831115403 76 171 1.7 4.3 0.00 0.00 0.00 80 1012.5
20260831114503 76 169 2.6 5.2 0.00 0.00 0.00 79 1012.3
20260831113603 77 166 1.7 5.2 0.00 0.00 0.00 79 1012.2
20260831112703 77 166 1.7 5.2 0.00 0.00 0.00 78 1012.1
20260831111803 77 164 2.6 7.0 0.00 0.00 0.00 77 1012.0
20260831110903 77 168 1.7 4.3 0.00 0.00 0.00 77 1012.0
20260831110004 78 165 1.7 4.3 0.00 0.00 0.00 76 1012.0
20260831105403 78 168 0.9 4.3 0.00 0.00 0.00 76 1012.0